STARLINK-32904, 63198

Orbit data source: Space-Track

STARLINK-32904, 63198 is a payload satellite owned by SpaceX/Seattle (US) in LEO that was launched on Thu, 13 Mar 2025 UTC via an FALCON 9 launch vehicle from the Air Force Eastern Test Range (AFETR). Payload-class satellites include a variety of spacecraft equipped with specific instruments for various scientific and technological missions. These include communications satellites like Starlink; space stations such as the ISS; scientific satellites like the Hubble; Earth observation satellites from companies like Planet Labs, Umbra, and HawkEye 360; GPS; miniature CubeSats for education and research; and military/defense satellites.

Loading next visibility...
Identifier
63198, 2025-048R
Orbit
LEO
Country
Flag of USUS
Related business
Manufacturer
SpaceX/Seattle
Mission
Operational Commercial Communications
Bus & Motor
STARLINK V2M, Unknown motor
Mass
730 kg wet, ~700 kg dry
Launch date (UTC)
2025-03-13 (1 year ago)
Launch vehicle
FALCON 9
Launch site
Air Force Eastern Test Range (AFETR)
Object type
Payload
Rocket body
Debris
Shape & HBR
Box + 2 Pan, 17.7 m
Radar Cross Section
33.884 m², Large (>1 m²)

Expand to show TLE details & history
Last TLE update: 2 days ago

TLE from 2 days ago
0 STARLINK-32904
1 63198U 25048R   26170.21841760  .00012092  00000-0  44816-3 0  9991
2 63198  42.9984 231.5899 0001051 266.7278  93.3453 15.27582951 72626
Epoch: 2026-06-19T05:14Z
TLE epoch observation values (Epoch: 2026-06-19T05:14:31.280Z)
Latitude
-0.00005°
Longitude
-114.49103°
Altitude
482.858 km
Speed
7.626 km/s
True Right ascension
15h 26m 21s
True Declination
0° 00' 00"
Sunlit
Object was in full shadow at epoch
Visualization orbit readout
Latitude
Unknown
Longitude
Unknown
Altitude
Unknown
Speed
Unknown
Apparent Right ascension
Unknown
Apparent Declination
Unknown
Sunlit
N/A
Visualization observer readout
Local Sidereal Time
07:15:52
Azimuth
Unknown
Elevation
Unknown
Doppler factor
Unknown
Orbital elements
Apogee altitude
485.707 km
Perigee altitude
484.264 km
Semi-major axis
6,863.123 km
Eccentricity
0.00011
Inclination
42.9984°
RAAN
231.5899°
Arg. of periapsis
266.7278°
True anomaly
93.35732°
Mean anomaly
93.3453°
Eccentric anomaly
93.35131°
Mean motion
3.81734 °/min
Orbital period
94.31 mins
BSTAR
0.00044816
Loading maneuver chart data...
Computing Atmospheric mass density...
Loading historical data...
Loading historical data...
Loading historical data...
Loading historical data...
Loading historical data...
Loading historical data...
Loading historical data...

Documentation

Showing up to 5 results
|